Sacramento, CA

11:16 PM PDT on August 24, 2016 (GMT -0700)
Mansion Flats | | Change Station

Elev 24 ft 38.58 °N, 121.48 °W | Updated 36 seconds ago

Clear
Clear
66.6 °F
Feels Like 66.6 °F
N
2.0
Wind Variable Wind from SE
Gusts 5.6 mph

Today
High -- | Low -- °F
--% Chance of Precip.
Yesterday
High -- | Low -- °F
Precip. -- in
Pressure 29.90 in
Visibility 10.0 miles
Clouds Clear
Dew Point 55 °F
Humidity 66%
Rainfall 0.00 in
Snow Depth Not available.
6:28 AM 7:46 PM
Waning Gibbous, 49% visible
METAR KSAC 250553Z AUTO 17004KT 10SM CLR 17/11 A2990 RMK AO2 SLP125 T01720111 10311 20172 51003
Pressure 29.90 in
Visibility 10.0 miles
Clouds Clear
Dew Point 55 °F
Humidity 66%
Rainfall 0.00 in
Snow Depth Not available.
6:28 AM 7:46 PM
Waning Gibbous, 49% visible
METAR KSAC 250553Z AUTO 17004KT 10SM CLR 17/11 A2990 RMK AO2 SLP125 T01720111 10311 20172 51003

10-Day Weather Forecast

Almanac

Astronomy

Aug. 24, 2016 Rise Set
Actual Time
Civil Twilight
Nautical Twilight
Astronomical Twilight
Moon
Length of Visible Light
Length of Day
Tomorrow will be .
, % of the Moon is Illuminated

Today's Extremes

State Highs State Lows

Community

WunderPhotos

Upload Photos

1,934,803 photos uploaded!

WunderBlog® & News

Nearby

Air Quality

  Air Quality AQ Index Pollutant
Not available.

Snow Depth

Station Depth Elevation

Earthquake Activity

City Distance Mag. Time & Date
Minimum magnitude displayed is 2.5.

Coastal Water Temperatures

Place Temperature

Stations

Nearby Weather Stations

Station Location Temp. Windchill Dew Point Humidity Wind Precip. Elev Updated Type
                   

Watches & Warnings

There are currently no watches in effect.